KMHL

Details ICAO KMHL
Name MARSHALL MEM MUNI
Region United States
Timezone America/Chicago (UTC-5.0)
Plans Departing 1
Arriving 3
Stats Elevation 779 ft / 237 m (AMSL)
Location 39.095816° -93.203571°
Runways 2
Magnetic Variation 0.622° E
Sunrise 2018-05-22 10:55:40 UTC / 2018-05-22 05:55:40 Local
Sunset 2018-05-23 01:26:11 UTC / 2018-05-22 20:26:11 Local
Advertisement - Login to hide

Runways

ID Width Length Bearing (true) Bearing (mag) Surface Threshold Offset Overrun Length
09 150 ft / 46 m 3,525 ft / 1,075 m 95.04° 94.42° Dirt 0 ft / 0 m 0 ft / 0 m
18 75 ft / 23 m 4,710 ft / 1,436 m 181.00° 180.38° Asphalt 200 ft / 61 m 0 ft / 0 m
27 150 ft / 46 m 3,525 ft / 1,075 m 275.05° 274.43° Dirt 0 ft / 0 m 0 ft / 0 m
36 75 ft / 23 m 4,710 ft / 1,436 m 1.00° 0.38° Asphalt 0 ft / 0 m 0 ft / 0 m

Map

Weather


0- 5 10 15 20 25 30 35+ Temperature / ° C

Clouds and Precipitation
Forecast for 2018-05-22 12:00 UTC. Updated 2 hours ago

Ground ~20,000 ft ~40,000 ft Winds

METAR

KMHL 221035Z AUTO 00000KT 5SM BR CLR 15/15 A3003 RMK AO2

TAF

Not found

Frequencies

Recorded 118.67 MHz AWOS 3
Approach 127.45 MHz WHITEMAN APP
Unicom 122.80 MHz CTAF/UNICOM
Departure 125.92 MHz WHITEMAN DEP
Warning: Do not use this data for real-world aviation or navigation. No guarantee of current accuracy is given.